FDX1363 KFAT-KOAK

Flight info

Callsign FDX1363
Flight time 0h 28m
Altitude 20000
Route SUNOL
Aircraft B77L/H-SDE1E2E3FGHIJ2J3J4J5M1RWXY/LB1D1

Departure

Time 2026-04-24 23:58
Airport Fresno Yosemite International Airport (KFAT)

Arrival

Time 2026-04-25 00:26
Airport San Francisco Bay Oakland International Airport (KOAK)
Time Latitude Longitude Altitude Speed Heading
2026-04-24 23:51 36.77948 -119.71540 345 ft 0 kts 305°
2026-04-24 23:52 36.77948 -119.71539 345 ft 2 kts 305°
2026-04-24 23:53 36.77933 -119.71515 356 ft 4 kts 306°
2026-04-24 23:53 36.77918 -119.71487 353 ft 4 kts 295°
2026-04-24 23:53 36.77913 -119.71461 357 ft 4 kts 233°
2026-04-24 23:53 36.77916 -119.71456 354 ft 1 kts 215°
2026-04-24 23:55 36.77914 -119.71457 357 ft 4 kts 215°
2026-04-24 23:56 36.77850 -119.71511 355 ft 11 kts 213°
2026-04-24 23:56 36.77823 -119.71530 356 ft 11 kts 202°
2026-04-24 23:56 36.77720 -119.71440 355 ft 22 kts 123°
2026-04-24 23:56 36.77643 -119.71302 356 ft 13 kts 130°
2026-04-24 23:57 36.77564 -119.71329 352 ft 14 kts 226°
2026-04-24 23:57 36.77513 -119.71434 351 ft 17 kts 271°
2026-04-24 23:57 36.77724 -119.71818 337 ft 104 kts 304°
2026-04-24 23:57 36.78328 -119.72889 497 ft 184 kts 306°
2026-04-24 23:58 36.79111 -119.74249 1518 ft 196 kts 305°
2026-04-24 23:58 36.79837 -119.75764 2385 ft 215 kts 298°
2026-04-24 23:58 36.80542 -119.77579 2848 ft 248 kts 296°
2026-04-24 23:58 36.81271 -119.79544 3906 ft 254 kts 295°
2026-04-24 23:59 36.82029 -119.81558 5097 ft 259 kts 295°
2026-04-24 23:59 36.82815 -119.83611 6188 ft 264 kts 294°
2026-04-24 23:59 36.83620 -119.85692 7308 ft 267 kts 294°
2026-04-24 23:59 36.84445 -119.87787 8431 ft 271 kts 295°
2026-04-25 00:00 36.85287 -119.89905 9548 ft 274 kts 295°
2026-04-25 00:00 36.86148 -119.92056 10519 ft 282 kts 295°
2026-04-25 00:00 36.87065 -119.94348 10962 ft 310 kts 295°
2026-04-25 00:00 36.88081 -119.96882 11259 ft 341 kts 295°
2026-04-25 00:01 36.89165 -119.99575 12105 ft 353 kts 295°
2026-04-25 00:01 36.90286 -120.02353 13044 ft 362 kts 295°
2026-04-25 00:01 36.91428 -120.05178 14094 ft 366 kts 295°
2026-04-25 00:01 36.92580 -120.08029 15100 ft 369 kts 295°
2026-04-25 00:02 36.93744 -120.10909 16071 ft 374 kts 295°
2026-04-25 00:02 36.94923 -120.13830 17053 ft 377 kts 295°
2026-04-25 00:02 36.96102 -120.16752 18230 ft 375 kts 295°
2026-04-25 00:02 36.97276 -120.19662 19213 ft 375 kts 295°
2026-04-25 00:03 36.98451 -120.22582 19808 ft 375 kts 295°
2026-04-25 00:03 36.99622 -120.25492 19901 ft 374 kts 295°
2026-04-25 00:03 37.00788 -120.28395 19913 ft 372 kts 295°
2026-04-25 00:03 37.01948 -120.31285 19919 ft 372 kts 295°
2026-04-25 00:04 37.03115 -120.34195 19923 ft 375 kts 295°
2026-04-25 00:04 37.04270 -120.37080 19925 ft 377 kts 295°
2026-04-25 00:04 37.05446 -120.40019 19922 ft 378 kts 295°
2026-04-25 00:04 37.06623 -120.42962 19921 ft 378 kts 295°
2026-04-25 00:05 37.07804 -120.45916 19922 ft 379 kts 295°
2026-04-25 00:05 37.08980 -120.48863 19917 ft 378 kts 295°
2026-04-25 00:05 37.10156 -120.51811 19922 ft 377 kts 295°
2026-04-25 00:05 37.11326 -120.54748 19921 ft 377 kts 295°
2026-04-25 00:06 37.12495 -120.57684 19928 ft 376 kts 295°
2026-04-25 00:06 37.13659 -120.60612 19924 ft 375 kts 295°
2026-04-25 00:06 37.14820 -120.63534 19925 ft 375 kts 295°
2026-04-25 00:06 37.15980 -120.66457 19926 ft 374 kts 295°
2026-04-25 00:07 37.17139 -120.69381 19925 ft 374 kts 295°
2026-04-25 00:07 37.18298 -120.72306 19922 ft 373 kts 295°
2026-04-25 00:07 37.19416 -120.75128 19910 ft 359 kts 295°
2026-04-25 00:07 37.20505 -120.77879 19906 ft 345 kts 295°
2026-04-25 00:08 37.21553 -120.80528 19909 ft 338 kts 295°
2026-04-25 00:08 37.22605 -120.83196 19821 ft 344 kts 295°
2026-04-25 00:08 37.23669 -120.85896 19574 ft 346 kts 295°
2026-04-25 00:08 37.24738 -120.88610 19233 ft 346 kts 295°
2026-04-25 00:09 37.25802 -120.91313 18855 ft 344 kts 295°
2026-04-25 00:09 37.26857 -120.93994 18475 ft 342 kts 295°
2026-04-25 00:09 37.27905 -120.96660 18067 ft 339 kts 295°
2026-04-25 00:09 37.28945 -120.99307 17629 ft 337 kts 295°
2026-04-25 00:10 37.29976 -121.01933 17228 ft 334 kts 295°
2026-04-25 00:10 37.30995 -121.04535 16832 ft 330 kts 295°
2026-04-25 00:10 37.32005 -121.07113 16448 ft 327 kts 296°
2026-04-25 00:10 37.33005 -121.09665 16089 ft 324 kts 295°
2026-04-25 00:11 37.33994 -121.12196 15733 ft 320 kts 296°
2026-04-25 00:11 37.34642 -121.13853 15516 ft 318 kts 296°
2026-04-25 00:11 37.35924 -121.17136 15021 ft 315 kts 296°
2026-04-25 00:11 37.36886 -121.19600 14655 ft 313 kts 296°
2026-04-25 00:12 37.37840 -121.22048 14291 ft 311 kts 296°
2026-04-25 00:12 37.38789 -121.24483 13938 ft 309 kts 297°
2026-04-25 00:12 37.39733 -121.26907 13566 ft 308 kts 297°
2026-04-25 00:12 37.40670 -121.29314 13183 ft 305 kts 297°
2026-04-25 00:13 37.41598 -121.31703 12804 ft 303 kts 296°
2026-04-25 00:13 37.42519 -121.34073 12471 ft 300 kts 296°
2026-04-25 00:13 37.43430 -121.36419 12118 ft 297 kts 296°
2026-04-25 00:13 37.44330 -121.38742 11776 ft 294 kts 296°
2026-04-25 00:14 37.45222 -121.41043 11449 ft 291 kts 296°
2026-04-25 00:14 37.46104 -121.43318 11112 ft 288 kts 295°
2026-04-25 00:14 37.46693 -121.44841 10901 ft 285 kts 295°
2026-04-25 00:14 37.47547 -121.47050 10571 ft 283 kts 295°
2026-04-25 00:15 37.48403 -121.49263 10244 ft 280 kts 295°
2026-04-25 00:15 37.49237 -121.51422 10132 ft 268 kts 295°
2026-04-25 00:15 37.50038 -121.53492 9994 ft 257 kts 295°
2026-04-25 00:15 37.50813 -121.55497 9693 ft 255 kts 295°
2026-04-25 00:16 37.51592 -121.57524 9245 ft 258 kts 295°
2026-04-25 00:16 37.52376 -121.59554 8835 ft 258 kts 294°
2026-04-25 00:16 37.53158 -121.61593 8416 ft 259 kts 294°
2026-04-25 00:16 37.53939 -121.63625 8099 ft 256 kts 294°
2026-04-25 00:17 37.54712 -121.65639 7803 ft 256 kts 294°
2026-04-25 00:17 37.55493 -121.67668 7502 ft 258 kts 294°
2026-04-25 00:17 37.56270 -121.69697 7213 ft 257 kts 294°
2026-04-25 00:17 37.57048 -121.71719 6910 ft 256 kts 294°
2026-04-25 00:18 37.57822 -121.73739 6643 ft 255 kts 294°
2026-04-25 00:18 37.58592 -121.75742 6357 ft 251 kts 294°
2026-04-25 00:18 37.59327 -121.77665 6333 ft 238 kts 294°
2026-04-25 00:18 37.60044 -121.79544 6329 ft 238 kts 293°
2026-04-25 00:19 37.60644 -121.81476 6035 ft 234 kts 275°
2026-04-25 00:19 37.60670 -121.83460 5772 ft 221 kts 266°
2026-04-25 00:19 37.60666 -121.85396 5532 ft 221 kts 268°
2026-04-25 00:19 37.60684 -121.87346 5288 ft 223 kts 268°
2026-04-25 00:20 37.60706 -121.89311 5066 ft 225 kts 269°
2026-04-25 00:20 37.60728 -121.91291 4827 ft 225 kts 268°
2026-04-25 00:20 37.60750 -121.93248 4569 ft 221 kts 269°
2026-04-25 00:20 37.60762 -121.95156 4360 ft 218 kts 266°
2026-04-25 00:21 37.60718 -121.97034 4135 ft 216 kts 265°
2026-04-25 00:21 37.60664 -121.98928 3893 ft 216 kts 264°
2026-04-25 00:21 37.60603 -122.00824 3621 ft 214 kts 263°
2026-04-25 00:21 37.60620 -122.02669 3406 ft 210 kts 270°
2026-04-25 00:22 37.60815 -122.04482 3153 ft 205 kts 275°
2026-04-25 00:22 37.61023 -122.06204 2961 ft 194 kts 275°
2026-04-25 00:22 37.61254 -122.07841 2699 ft 185 kts 287°
2026-04-25 00:22 37.61950 -122.09153 2474 ft 178 kts 310°
2026-04-25 00:23 37.62782 -122.10349 2210 ft 180 kts 307°
2026-04-25 00:23 37.63542 -122.11507 2099 ft 160 kts 306°
2026-04-25 00:23 37.64230 -122.12544 1866 ft 144 kts 306°
2026-04-25 00:23 37.64838 -122.13454 1721 ft 133 kts 305°
2026-04-25 00:24 37.65453 -122.14351 1554 ft 136 kts 307°
2026-04-25 00:24 37.66051 -122.15268 1386 ft 134 kts 303°
2026-04-25 00:24 37.66643 -122.16204 1172 ft 139 kts 304°
2026-04-25 00:24 37.67260 -122.17141 1012 ft 137 kts 307°
2026-04-25 00:25 37.67883 -122.18026 809 ft 135 kts 308°
2026-04-25 00:25 37.68507 -122.18937 606 ft 136 kts 306°
2026-04-25 00:25 37.69120 -122.19833 413 ft 133 kts 302°
2026-04-25 00:25 37.69698 -122.20746 215 ft 133 kts 303°
2026-04-25 00:26 37.70293 -122.21638 39 ft 133 kts 304°
2026-04-25 00:26 37.70848 -122.22477 7 ft 107 kts 310°
2026-04-25 00:26 37.71173 -122.22960 11 ft 36 kts 313°
2026-04-25 00:26 37.71327 -122.23095 11 ft 25 kts 337°
2026-04-25 00:27 37.71459 -122.23147 9 ft 11 kts
2026-04-25 00:27 37.71491 -122.23074 12 ft 16 kts 109°
2026-04-25 00:27 37.71408 -122.22934 16 ft 20 kts 130°
2026-04-25 00:27 37.71315 -122.22797 15 ft 21 kts 130°
2026-04-25 00:28 37.71225 -122.22657 16 ft 21 kts 127°
2026-04-25 00:28 37.71235 -122.22498 14 ft 21 kts 48°
2026-04-25 00:28 37.71323 -122.22372 16 ft 17 kts 53°
2026-04-25 00:28 37.71337 -122.22228 16 ft 17 kts 86°
2026-04-25 00:29 37.71394 -122.22099 17 ft 17 kts 48°
2026-04-25 00:29 37.71466 -122.22009 19 ft 14 kts 41°
2026-04-25 00:29 37.71554 -122.22025 18 ft 15 kts 316°
2026-04-25 00:29 37.71627 -122.22103 19 ft 12 kts 319°
2026-04-25 00:30 37.71644 -122.22122 18 ft 0 kts 318°